Regional Weather Roundup
Issued by NWS

Home | Current Version | Previous Version | Graphics & Text | Print | Product List | Glossary On
Versions: 1 2 3 4 5 6 7 8 9 10 11 12 13 14 15 16 17 18 19 20 21 22 23 24 25 26 27 28 29 30 31 32 33 34 35 36 37 38 39 40 41 42 43 44 45 46 47 48 49 50
258
ASUS43 KIND 280559
RWRIN

WEATHER ROUNDUP FOR INDIANA
NATIONAL WEATHER SERVICE INDIANAPOLIS IN
200 AM EDT WED SEP 28 2016

NOTE: "FAIR" INDICATES FEW OR NO CLOUDS BELOW 12,000 FEET WITH NO
SIGNIFICANT WEATHER AND/OR OBSTRUCTIONS TO VISIBILITY.

* - STATION DOES NOT REPORT WEATHER SUCH AS PRECIPITATION OR FOG.

+ - STATION NOT QUALITY CONTROLLED BY THE NATIONAL WEATHER SERVICE.
    USE DATA WITH CAUTION...ESPECIALLY DEWPOINT AND RELATIVE
    HUMIDITY OBSERVATIONS.

INZ001>003-010>013-019-020-280700-
NORTHWEST INDIANA

CITY           SKY/WX    TMP DP  RH WIND       PRES   REMARKS
GARY /AIRPORT/ CLOUDY    54  47  80 CALM      29.77S
KNOX *+        PTCLDY    48  28  46 CALM      29.77S
MONTICELLO +   CLOUDY    55  41  58 SE5       29.77F
6HR MIN TEMP:  48; 6HR MAX TEMP:  64;

RENSSELAER +   CLOUDY    50  46  87 CALM      29.76F

$$

LMZ046-743>745-280700-
SOUTHERN LAKE MICHIGAN

STATION/POSITION TIME  TEMP    WIND        PRES    WAVE
                       AIR SEA DIR/SP/G            HT
                 (UTC) (F)     (DEG/KT/KT) (MB)    (FT)
BURNS HARBOR     0505   60      90/  5/  8 1008.5S
MICHIGAN CITY    0500   56      50/  8/  9   N/A
5NW MICH CITY    0500   60 67  100/ 14/ 17   N/A     2

$$

INZ004-005-014>016-021>024-280700-
NORTH CENTRAL INDIANA

CITY           SKY/WX    TMP DP  RH WIND       PRES   REMARKS
GOSHEN         CLOUDY    51  43  74 E7        29.78F
6HR MIN TEMP:  48; 6HR MAX TEMP:  61;

PERU/GRISSOM   PTCLDY    51  43  72 S3        29.78S
6HR MIN TEMP:  50; 6HR MAX TEMP:  60;

SOUTH BEND     CLOUDY    53  47  79 NE3       29.79S
6HR MIN TEMP:  53; 6HR MAX TEMP:  60;

WARSAW +       CLOUDY    46  37  71 CALM      29.79S

$$

INZ006>009-017-018-025>027-280700-
NORTHEAST INDIANA

CITY           SKY/WX    TMP DP  RH WIND       PRES   REMARKS
ANGOLA *+        N/A     46  34  61 E3        29.80F
AUBURN +       CLOUDY    48  41  76 CALM      29.81S
FORT WAYNE     MOCLDY    50  43  77 SE3       29.80F
6HR MIN TEMP:  49; 6HR MAX TEMP:  59;

KENDALLVILLE + PTCLDY    46  44  92 CALM      29.80F

$$

INZ028-029-035-036-043>045-051>053-280700-
WEST CENTRAL INDIANA

CITY           SKY/WX    TMP DP  RH WIND       PRES   REMARKS
CRAWFORDSVL +  CLOUDY    55  51  87 S3        29.79F
6HR MIN TEMP:  49; 6HR MAX TEMP:  62;

GREENCASTLE +  CLOUDY    55  54  94 S5        29.81F
LAFAYETTE      PTCLDY    51  46  83 CALM      29.77F
6HR MIN TEMP:  48; 6HR MAX TEMP:  63;

TERRE HAUTE    CLOUDY    62  51  67 SW6       29.80F
6HR MIN TEMP:  58; 6HR MAX TEMP:  67;


$$

INZ030>032-037>040-046>048-054>057-064-065-280700-
CENTRAL INDIANA

CITY           SKY/WX    TMP DP  RH WIND       PRES   REMARKS
FRANKFORT +    CLOUDY    55  50  81 CALM      29.81S
6HR MIN TEMP:  52; 6HR MAX TEMP:  65;

INDIANAPOLIS   CLOUDY    59  50  72 SW7       29.80F
6HR MIN TEMP:  58; 6HR MAX TEMP:  64;

-EAGLE CREEK   CLOUDY    61  49  64 SW6       29.80F
6HR MIN TEMP:  59; 6HR MAX TEMP:  68;

MT COMFORT *+  CLOUDY    57  50  77 CALM      29.82S
SHELBYVILLE    CLOUDY    61  50  67 S8        29.81F
6HR MIN TEMP:  57; 6HR MAX TEMP:  65;


$$

INZ033-034-041-042-049-050-058-059-280700-
EAST CENTRAL INDIANA

CITY           SKY/WX    TMP DP  RH WIND       PRES   REMARKS
MUNCIE         MOCLDY    61  49  64 SW6       29.81F
6HR MIN TEMP:  59; 6HR MAX TEMP:  67;


$$

INZ060-061-067>069-081>083-085>088-280700-
SOUTHWEST INDIANA

CITY           SKY/WX    TMP DP  RH WIND       PRES   REMARKS
EVANSVILLE     CLEAR     59  52  77 SW6       29.86F
6HR MIN TEMP:  59; 6HR MAX TEMP:  67;

HUNTINGBURG *+   N/A     61  48  63 S9        29.87S
6HR MIN TEMP:  61; 6HR MAX TEMP:  68;


$$

INZ062-063-066-070>080-084-089>092-280700-
SOUTH CENTRAL AND SOUTHEAST INDIANA

CITY           SKY/WX    TMP DP  RH WIND       PRES   REMARKS
BLOOMINGTON    CLOUDY    61  50  67 SW7       29.82F
6HR MIN TEMP:  54; 6HR MAX TEMP:  61;

MADISON *+     PTCLDY    55  48  76 S5        29.89S
SEYMOUR +      CLEAR     57  50  77 CALM      29.84F

$$





USA.gov is the U.S. government's official web portal to all federal, state and local government web resources and services.